Regional Weather Roundup
Issued by NWS Glasgow, MT

Home | Current Version | Previous Version | Text Only | Print | Product List | Glossary On
Versions: 1 2 3 4 5 6 7 8 9 10 11 12 13 14 15 16 17 18 19 20 21 22 23 24 25 26 27 28 29 30 31 32 33 34 35 36 37 38 39 40 41 42 43 44 45 46 47 48 49 50
000
ASUS45 KGGW 211615
RWRGGW
HOURLY WEATHER ROUNDUP FOR NORTHEAST MONTANA
NATIONAL WEATHER SERVICE GLASGOW MONTANA
1000 AM MDT SUN SEP 21 2014

NOTE: "FAIR" INDICATES FEW OR NO CLOUDS BELOW 12,000 FEET WITH NO
SIGNIFICANT WEATHER AND/OR OBSTRUCTIONS TO VISISBILITY.

NORTHEAST MONTANA


CITY           SKY/WX    TMP DP  RH WIND       PRES   REMARKS
GLASGOW        SUNNY     58  41  53 S5        30.29S
PLENTYWOOD       N/A     58  37  45 W2          N/A
WOLF POINT     SUNNY     55  40  56 CALM      30.31S
JORDAN           N/A     58  43  57 CALM      30.30S
WINNETT          N/A     59  46  62 NE2         N/A
SIDNEY         SUNNY     54  43  66 S6        30.34R
GLENDIVE       NOT AVBL
MALTA            N/A     57  48  72 NE3         N/A
SCOBEY           N/A     57  38  48 CALM      30.26S
OPHEIM           N/A     61  32  33 S5        30.13F

FORT PECK REPORTS


CITY           SKY/WX    TMP DP  RH WIND       PRES   REMARKS
FORT PECK        N/A     60  48  64 S3          N/A
THE PINES        N/A     62  40  44 S1          N/A

SOUTHEAST MONTANA


CITY           SKY/WX    TMP DP  RH WIND       PRES   REMARKS
BILLINGS       SUNNY     55  43  63 SW6       30.29S
MILES CITY     SUNNY     60  40  47 SE6       30.31S
BAKER          SUNNY     63  38  39 CALM      30.34S
LIVINGSTON     SUNNY     52  41  66 SW5       30.30F

CENTRAL MONTANA


CITY           SKY/WX    TMP DP  RH WIND       PRES   REMARKS
HAVRE          SUNNY     54  42  64 CALM      30.24F
LEWISTOWN      SUNNY     63  43  48 E3        30.27F
GREAT FALLS    SUNNY     58  46  64 SE5       30.23S
CUT BANK       SUNNY     55  42  61 SE6       30.23F
HELENA         SUNNY     55  42  61 CALM      30.25S
BUTTE          SUNNY     55  39  54 N5        30.29F
BOZEMAN        SUNNY     56  43  61 CALM      30.27F

WESTERN MONTANA


CITY           SKY/WX    TMP DP  RH WIND       PRES   REMARKS
MISSOULA       SUNNY     54  41  61 CALM      30.18F
KALISPELL      NOT AVBL

NORTH DAKOTA


CITY           SKY/WX    TMP DP  RH WIND       PRES   REMARKS
WILLISTON      SUNNY     56  41  57 VRB3      30.30S
DICKINSON      SUNNY     62  42  47 W7        30.30S
MINOT          SUNNY     62  45  53 NW7       30.26S
BISMARCK       SUNNY     61  46  57 W5        30.30R

SOUTHERN SASKATCHEWAN


CITY           SKY/WX    TMP DP  RH WIND       PRES   REMARKS
REGINA         SUNNY     59  45  58 SW3       30.25S
ESTEVAN        SUNNY     55  46  71 W6        30.28S
SWIFT CURRENT  SUNNY     64  39  39 SW17G23   30.23F




USA.gov is the U.S. government's official web portal to all federal, state and local government web resources and services.